User: anonymous   Login
Location: Clifton Park
(41.4873°N, 81.8024°W)
Time: 19:22:45
(UTC+00:00)
Language:

PAYLOAD B - Orbit

View from above orbital plane
View from above orbital plane
View from above satellite
View from above satellite

Ground track
Ground track

The orbit data is extracted from the following two-line orbital elements,

1 27431U 02024B   20090.72163809 -.00000010  00000-0  20741-4 0  9992
2 27431  99.1401  87.6397 0016257 118.8203 241.4601 14.09695294919766
Epoch (UTC): 30 March 2020 17:19:09
Eccentricity: 0.0016257
inclination: 99.1401°
perigee height: 848 km
apogee height: 872 km
right ascension of ascending node: 87.6397°
argument of perigee: 118.8203°
revolutions per day: 14.09695294
mean anomaly at epoch: 241.4601°
orbit number at epoch: 91976

The dashed part of the orbit path shows where the satellite is in the earth's shadow,  

DLR